Tracking 23764 objects as of 17-Oct-2021
HD Live streaming from Space Station
objects crossing your sky now

TITAN 3C TRANSTAGE R/B

Track TITAN 3C TRANSTAGE R/B now!


NORAD ID: 10942
Int'l Code: 1978-058B
Perigee: 29,694.0 km
Apogee: 42,258.7 km
Inclination: 8.7 °
Period: 1,445.4 minutes
Semi major axis: 42347 km
RCS: Unknown
Launch date: June 10, 1978
Source: United States (US)
Launch site: AIR FORCE EASTERN TEST RANGE (AFETR)

Note: This is a ROCKET BODY
aabbcc
Your satellite tracking list
Your tracking list is empty




NASA's NSSDC Master Catalog

Two Line Element Set (TLE):
1 10942U 78058B   21289.34915106 -.00000098  00000-0  00000-0 0  9993
2 10942   8.6659  24.7515 1483526  93.8063 283.1270  0.99623778  9782
Source of the keplerian elements: McCants